Regional Weather Roundup
Issued by NWS

Home | Current Version | Previous Version | Graphics & Text | Print | Product List | Glossary On
Versions: 1 2 3 4 5 6 7 8 9 10 11 12 13 14 15 16 17 18 19 20 21 22 23 24 25 26 27 28 29 30 31 32 33 34 35 36 37 38 39 40 41 42 43 44 45 46 47 48 49 50
000
ASUS43 KLMK 221110
RWRKY
KENTUCKY REGIONAL WEATHER ROUNDUP
NATIONAL WEATHER SERVICE LOUISVILLE KY
700 AM EDT SUN APR 22 2018

NOTE "FAIR" INDICATES FEW OR NO CLOUDS BELOW 12,000 FEET
WITH NO SIGNIFICANT WEATHER AND/OR OBSTRUCTIONS TO VISIBILITY.

KYZ001>023-026-027-061>063-070>075-221200-
WESTERN AND SOUTH CENTRAL KENTUCKY

CITY           SKY/WX    TMP DP  RH WIND       PRES   REMARKS
PADUCAH        LGT RAIN  52  46  80 E8        30.13F
HENDERSON      LGT RAIN  54  40  59 NE7       30.20R
OWENSBORO      FAIR      54  33  45 E5        30.20R
HOPKINSVILLE   MOCLDY    56  41  57 E5        30.13S
BOWLING GREEN  FAIR      53  40  61 E6        30.19R
GLASGOW        FAIR      51  36  57 NE3       30.21R
$$

KYZ024-025-028>034-038-045-046-053-221200-
NORTH CENTRAL KENTUCKY

CITY           SKY/WX    TMP DP  RH WIND       PRES   REMARKS
LOUISVILLE/SDF MOCLDY    53  28  38 NE6       30.23S
LOUISVILLE/LOU FAIR      52  29  41 NE6       30.24S
FORT KNOX      FAIR      51  28  41 E8        30.22S
$$

KYZ035>037-039>044-047>052-055>060-089>105-221200-
NORTHEAST KENTUCKY

CITY           SKY/WX    TMP DP  RH WIND       PRES   REMARKS
LEXINGTON      FAIR      47  31  53 NE8       30.25R
COVINGTON      CLOUDY    48  27  44 NE8       30.28R
FRANKFORT      FAIR      51  26  37 NE3       30.25R
$$

KYZ054-064>069-076>088-106>120-221200-
SOUTHEAST KENTUCKY

CITY           SKY/WX    TMP DP  RH WIND       PRES   REMARKS
JACKSON        FAIR      51  20  29 E6        30.25R
LONDON         FAIR      48  33  56 CALM      30.24R
SOMERSET       MOCLDY    46  34  61 CALM      30.24S
MIDDLESBORO    FAIR      43  40  90 CALM      30.27R
MONTICELLO     FAIR      48  41  76 VRB6      30.24R
$$





USA.gov is the U.S. government's official web portal to all federal, state and local government web resources and services.